Location: Unspecified
(0.0000°N, 0.0000°E)
Time: 07:04:11
(UTC+00:00)

Transit 4A - Pass Details

Date: 03 June 2022
Orbit: 864 x 980 km, 66.8° (Epoch: 24 June)

Event Time Altitude Azimuth Distance (km) Brightness Sun altitude
Rises 12:20:52 0° 338° (NNW) 3,527 11.3 67.0°
Reaches altitude 10° 12:23:24 10° 336° (NNW) 2,571 10.7 66.8°
Maximum altitude 12:29:20 78° 251° (WSW) 906 9.3 66.4°
Drops below altitude 10° 12:35:09 10° 165° (SSE) 2,518 10.0 65.9°
Sets 12:37:37 0° 163° (SSE) 3,449 10.6 65.7°
